User: anonymous   Login
Location: Starry Hill Observatory
(46.8582°N, 122.3590°W)
Time: 14:04:42
(UTC-07:00)
Language:

Cosmos 1300 Rocket - Orbit

View from above orbital plane
View from above orbital plane
View from above satellite
View from above satellite

Ground track
Ground track

The orbit data is extracted from the following two-line orbital elements,

1 12786U 81082B   16149.90097525 +.00000141 +00000-0 +13810-4 0  9994
2 12786 082.4873 329.8709 0019172 084.1647 276.1753 14.84618656856690
Epoch (UTC): 28 May 2016 21:37:24
Eccentricity: 0.0019172
inclination: 82.4873°
perigee height: 601 km
apogee height: 628 km
right ascension of ascending node: 329.8709°
argument of perigee: 84.1647°
revolutions per day: 14.84618656
mean anomaly at epoch: 276.1753°
orbit number at epoch: 85669

The dashed part of the orbit path shows where the satellite is in the earth's shadow,  

DLR